Location: Kelshall
(52.0000°N, 0.0500°W)
Time: 21:10:27
(UTC+00:00)

ATLAS 2AS CENTAUR R/B - Pass Details

Date: 22 January 2021
Orbit: 947 x 1265 km, 63.7° (Epoch: 13 February)

Event Time Altitude Azimuth Distance (km) Brightness Sun altitude
Rises 22:16:11 0° 310° (NW) 4,178 6.4 -50.4°
Reaches altitude 10° 22:19:07 10° 315° (NW) 3,178 5.6 -50.7°
Enters shadow 22:21:05 19° 320° (NW) 2,533 5.0 -50.9°
